Alamosa, CO

7:54 AM MDT on September 21, 2019 (GMT -0600)
San Luis Valley Regional / Bergman Field

Weather History for KALS - August, 2019

Change the Weather History Date:

Thursday, August 22, 2019

  Actual Average Record
Temperature  
Mean Temperature 60 °F 62 °F  
Max Temperature 80 °F 79 °F 89 °F (1945)
Min Temperature 40 °F 45 °F 32 °F (1964)
Degree Days  
Heating Degree Days 5 3  
Month to date heating degree days 19 47  
Since 1 June heating degree days 219 260  
Since 1 July heating degree days 46 92  
Cooling Degree Days 0 0  
Month to date cooling degree days 14 12  
Year to date cooling degree days 64 50  
Since 1 June cooling degree days 64 50  
Growing Degree Days 10 (Base 50)    
Moisture  
Dew Point 39 °F    
Average Humidity 53    
Maximum Humidity 89    
Minimum Humidity 17    
Precipitation  
Precipitation T in 0.04 in 0.51 in (2014)
Month to date precipitation 0.82 0.90  
Year to date precipitation 6.02 4.58  
Snow  
Snow 0.00 in 0.00 in 0.00 in (2002)
Month to date snowfall 0.0 0.0  
Since 1 June snowfall 0.0 0.0  
Since 1 July snowfall 0.0 0.0  
Snow Depth 0.00 in    
Sea Level Pressure  
Sea Level Pressure 30.03 in    
Wind  
Wind Speed 6 mph (NW)    
Max Wind Speed 28 mph    
Max Gust Speed 35 mph    
Visibility 10 miles    
Events Rain , Thunderstorm    
T = Trace of Precipitation, MM = Missing Value Source: NWS Daily Summary

Daily Weather History Graph

Daily Weather History Graph

Search for Another Location

Airport or City:

Astronomy

Aug. 22, 2019 Rise Set
Actual Time 6:25 AM MDT 7:46 PM MDT
Civil Twilight 5:58 AM MDT 8:14 PM MDT
Nautical Twilight 5:25 AM MDT 8:46 PM MDT
Astronomical Twilight 4:50 AM MDT 9:20 PM MDT
Moon 11:46 PM MDT (8/22) 12:55 PM MDT (8/22)
Length of Visible Light 14h 15m
Length of Day
13h 21m
Waning Gibbous, 59% of the Moon is Illuminated
Aug 22
Waning Gibbous
Aug 23
Last Quarter
Aug 30
New
Sep 5
First Quarter
Sep 13
Full

Hourly Weather History & Observations

Time (MDT) Temp. Windchill Dew Point Humidity Pressure Visibility Wind Dir Wind Speed Gust Speed Precip Events Conditions
12:52 AM 46.9 °F - 42.1 °F 83% 30.06 in 10.0 mi Calm Calm - N/A   Clear
1:52 AM 45.0 °F 42.6 °F 39.9 °F 82% 30.06 in 10.0 mi ESE 4.6 mph - N/A   Clear
2:52 AM 45.0 °F 42.6 °F 39.9 °F 82% 30.05 in 10.0 mi SW 4.6 mph - N/A   Clear
3:52 AM 41.0 °F 39.0 °F 37.9 °F 89% 30.08 in 10.0 mi SSE 3.5 mph - N/A   Clear
4:52 AM 42.1 °F - 39.0 °F 89% 30.07 in 10.0 mi Calm Calm - N/A   Clear
5:52 AM 43.0 °F 41.3 °F 39.0 °F 86% 30.09 in 10.0 mi NNE 3.5 mph - N/A   Clear
6:52 AM 43.0 °F 41.3 °F 39.0 °F 86% 30.10 in 10.0 mi WNW 3.5 mph - N/A   Clear
7:52 AM 48.0 °F - 41.0 °F 77% 30.11 in 10.0 mi WSW 3.5 mph - N/A   Clear
8:52 AM 55.0 °F - 39.9 °F 57% 30.11 in 10.0 mi Calm Calm - N/A   Clear
9:52 AM 63.0 °F - 41.0 °F 45% 30.06 in 10.0 mi Calm Calm - N/A   Clear
10:52 AM 66.0 °F - 43.0 °F 43% 30.05 in 10.0 mi NE 3.5 mph - N/A   Clear
11:52 AM 71.1 °F - 39.9 °F 32% 30.01 in 10.0 mi Variable 3.5 mph - N/A   Clear
12:52 PM 73.9 °F - 37.0 °F 26% 29.96 in 10.0 mi Calm Calm - N/A   Clear
1:52 PM 78.1 °F - 41.0 °F 27% 29.94 in 10.0 mi SSW 12.7 mph 18.4 mph N/A   Clear
2:52 PM 80.1 °F - 32.0 °F 17% 29.90 in 10.0 mi SSW 17.3 mph 20.7 mph N/A   Clear
3:52 PM 75.0 °F - 37.0 °F 25% 29.94 in 10.0 mi North 13.8 mph 21.9 mph N/A   Mostly Cloudy
4:52 PM 75.9 °F - 37.0 °F 24% 29.93 in 10.0 mi NNW 21.9 mph 28.8 mph N/A   Scattered Clouds
5:02 PM 75.0 °F - 35.1 °F 23% 30.18 in 10.0 mi NNW 20.7 mph 31.1 mph N/A Thunderstorm Partly Cloudy
5:17 PM 75.0 °F - 36.0 °F 24% 30.18 in 10.0 mi NW 17.3 mph 29.9 mph N/A   Clear
5:52 PM 71.1 °F - 37.0 °F 29% 29.97 in 10.0 mi WNW 20.7 mph 34.5 mph N/A   Mostly Cloudy
6:52 PM 69.1 °F - 37.0 °F 31% 30.00 in 10.0 mi Variable 5.8 mph - 0.00 in Rain Light Rain
7:52 PM 64.0 °F - 39.0 °F 40% 30.00 in 10.0 mi ENE 5.8 mph - 0.00 in   Clear
8:52 PM 57.9 °F - 39.9 °F 51% 30.00 in 10.0 mi ENE 4.6 mph - N/A   Clear
9:52 PM 54.0 °F - 37.9 °F 55% 29.99 in 10.0 mi Calm Calm - N/A   Clear
10:52 PM 51.1 °F - 39.0 °F 63% 29.99 in 10.0 mi South 5.8 mph - N/A   Clear
11:52 PM 48.9 °F - 39.9 °F 71% 29.98 in 10.0 mi WNW 3.5 mph - N/A   Clear